| time (UTC) | temp F | wind direction | speed MPH | gust MPH | rain 1hr in | rain 24hr in | rain mn in | humidity % | barometer mb |
| 20260506000559 | 80 | 310 | 3.0 | 10.0 | 0.00 | 0.00 | 0.00 | 31 | 1002.1 |
| 20260505235559 | 81 | 352 | 9.0 | 13.0 | 0.00 | 0.00 | 0.00 | 32 | 1002.0 |
| 20260505234559 | 81 | 356 | 5.0 | 18.0 | 0.00 | 0.00 | 0.00 | 30 | 1002.1 |
| 20260505233559 | 81 | 329 | 9.0 | 12.0 | 0.00 | 0.00 | 0.00 | 31 | 1002.2 |
| 20260505232559 | 81 | 324 | 3.0 | 14.0 | 0.00 | 0.00 | 0.00 | 32 | 1002.2 |
| 20260505231559 | 81 | 329 | 5.0 | 15.0 | 0.00 | 0.00 | 0.00 | 30 | 1002.3 |
| 20260505230559 | 81 | 305 | 1.0 | 11.0 | 0.00 | 0.00 | 0.00 | 32 | 1002.2 |
| 20260505225559 | 80 | 310 | 3.0 | 17.0 | 0.00 | 0.00 | 0.00 | 32 | 1002.3 |
| 20260505224559 | 81 | 309 | 3.0 | 14.0 | 0.00 | 0.00 | 0.00 | 31 | 1002.4 |
| 20260505223558 | 81 | 283 | 10.0 | 14.0 | 0.00 | 0.00 | 0.00 | 31 | 1002.4 |
| 20260505222558 | 81 | 311 | 7.0 | 19.0 | 0.00 | 0.00 | 0.00 | 30 | 1002.6 |
| 20260505221558 | 80 | 318 | 5.0 | 11.0 | 0.00 | 0.00 | 0.00 | 34 | 1002.6 |
| 20260505220618 | 80 | 9 | 3.0 | 11.0 | 0.00 | 0.00 | 0.00 | 32 | 1002.8 |
| 20260505215558 | 80 | 320 | 5.0 | 11.0 | 0.00 | 0.00 | 0.00 | 32 | 1003.1 |
| 20260505214558 | 79 | 12 | 8.0 | 11.0 | 0.00 | 0.00 | 0.00 | 34 | 1003.2 |
| 20260505213558 | 80 | 313 | 3.0 | 10.0 | 0.00 | 0.00 | 0.00 | 34 | 1003.3 |
| 20260505184556 | 73 | 260 | 5.0 | 5.0 | 0.00 | 0.00 | 0.00 | 37 | 1004.9 |
| 20260505183556 | 73 | 303 | 2.0 | 4.0 | 0.00 | 0.00 | 0.00 | 37 | 1005.0 |
| 20260505182556 | 72 | 301 | 3.0 | 6.0 | 0.00 | 0.00 | 0.00 | 41 | 1005.1 |
| 20260505181556 | 73 | 231 | 1.0 | 7.0 | 0.00 | 0.00 | 0.00 | 38 | 1005.2 |
| 20260505180555 | 72 | 278 | 3.0 | 4.0 | 0.00 | 0.00 | 0.00 | 40 | 1005.3 |
| 20260505175555 | 73 | 247 | 2.0 | 8.0 | 0.00 | 0.00 | 0.00 | 38 | 1005.3 |
| 20260505174555 | 73 | 103 | 1.0 | 6.0 | 0.00 | 0.00 | 0.00 | 39 | 1005.2 |
| 20260505173555 | 71 | 186 | 4.0 | 5.0 | 0.00 | 0.00 | 0.00 | 41 | 1005.3 |
| 20260505172555 | 71 | 154 | 3.0 | 8.0 | 0.00 | 0.00 | 0.00 | 40 | 1005.3 |
| 20260505171555 | 70 | 147 | 5.0 | 9.0 | 0.00 | 0.00 | 0.00 | 42 | 1005.3 |
| 20260505170615 | 70 | 224 | 3.0 | 7.0 | 0.00 | 0.00 | 0.00 | 42 | 1005.2 |
| 20260505165555 | 69 | 231 | 3.0 | 8.0 | 0.00 | 0.00 | 0.00 | 41 | 1005.1 |
| 20260505164615 | 69 | 189 | 3.0 | 10.0 | 0.00 | 0.00 | 0.00 | 42 | 1005.2 |
| 20260505163555 | 68 | 202 | 2.0 | 8.0 | 0.00 | 0.00 | 0.00 | 44 | 1005.1 |
| 20260505162554 | 68 | 162 | 4.0 | 10.0 | 0.00 | 0.00 | 0.00 | 43 | 1005.1 |
| 20260505161554 | 67 | 166 | 4.0 | 10.0 | 0.00 | 0.00 | 0.00 | 45 | 1005.1 |
| 20260505160554 | 67 | 146 | 2.0 | 10.0 | 0.00 | 0.00 | 0.00 | 44 | 1004.9 |
| 20260505152554 | 66 | 162 | 3.0 | 13.0 | 0.00 | 0.00 | 0.00 | 47 | 1004.8 |
| 20260505121552 | 53 | 135 | 2.0 | 5.0 | 0.00 | 0.00 | 0.00 | 70 | 1002.1 |
| 20260505120552 | 54 | 303 | 0.0 | 0.0 | 0.00 | 0.00 | 0.00 | 67 | 1001.8 |
| 20260505115552 | 54 | 303 | 1.0 | 2.0 | 0.00 | 0.00 | 0.00 | 66 | 1001.6 |
| 20260505114552 | 55 | 303 | 1.0 | 2.0 | 0.00 | 0.00 | 0.00 | 66 | 1001.6 |
| 20260505113552 | 55 | 303 | 0.0 | 2.0 | 0.00 | 0.00 | 0.00 | 64 | 1001.4 |
| 20260505112551 | 56 | 303 | 2.0 | 3.0 | 0.00 | 0.00 | 0.00 | 63 | 1001.4 |
| 20260505111552 | 57 | 303 | 0.0 | 2.0 | 0.00 | 0.00 | 0.00 | 61 | 1001.3 |
| 20260505110551 | 58 | 303 | 1.0 | 2.0 | 0.00 | 0.00 | 0.00 | 60 | 1001.2 |
| 20260505041548 | 70 | 307 | 3.0 | 8.0 | 0.00 | 0.00 | 0.00 | 45 | 998.6 |
| 20260505014546 | 80 | 293 | 3.0 | 11.0 | 0.00 | 0.00 | 0.00 | 33 | 997.5 |
| 20260505013546 | 80 | 286 | 5.0 | 11.0 | 0.00 | 0.00 | 0.00 | 33 | 997.6 |
| 20260505012546 | 80 | 294 | 4.0 | 10.0 | 0.00 | 0.00 | 0.00 | 32 | 997.7 |
| 20260505011546 | 80 | 356 | 4.0 | 10.0 | 0.00 | 0.00 | 0.00 | 32 | 997.8 |
| 20260505010545 | 81 | 359 | 5.0 | 10.0 | 0.00 | 0.00 | 0.00 | 32 | 997.8 |